星链-34625(STARLINK-34625)

导读

STARLINK-34625是由美国发射的星链系列卫星,于2025年10月25日成功发射,隶属于SpaceX打造的星链卫星互联网星座项目。该卫星延续星链设计,旨在为全球范围内用户提供低延迟、高速率的宽带互联网服务,进一步补全星链星座的全球覆盖网络,推动星链项目的部署进程。

基本信息
目录编号:
66154
目录名称:
STARLINK-34625
国际标识:
2025-240J
轨道中心:
EARTH
卫星名称:
星链-34625
卫星全名:
星链-34625(STARLINK-34625)
卫星状态:
在轨 (已飞行314 天)
发射日期:
2025-10-25 UTC
国别 :
美国 (US)
星等 :
--
轨道信息
数据来源 国际轨道数据
星历时间: 2026-09-04T03:26:19+0800
12小时前
查看轨道信息
半长轴: 6840.829km
偏心率: 0.000116
轨道倾角: 53.157°
近地点辐角 118.126°
升交点赤经 313.751°
平近点角 241.986°
近地点: 461.898km
远地点: 463.486km
周期: 93.848分钟
每日圈数: 15.344041
详细信息
固有亮度:
5
最大亮度:
2.5
卫星平台:
Starlink V1.0
覆盖范围:
全球
运营商:
太空探索技术公司
运营商所在国:
美国
制造商(研发单位):
太空探索技术公司
制造商所在国:
美国
使用方式:
暂无
卫星简介
Starlink 计划是 SpaceX 推出的全球卫星互联网项目,通过发射低轨道卫星,为全球尤其是偏远地区提供高速、低延迟的互联网服务。自 2019 年起,Starlink 已部署数千颗卫星,旨在缩小全球数字鸿沟,推动互联网普及。该项目还为军事、航空等行业提供通信支持,带来广泛经济效益。
2D轨道图
3D轨道图
轨道高度分析图
轨道倾角分析图
轨道综合分析图
查看轨道综合分析图
交会数据列表
事件ID 空间交会对象 最接近时刻(TCA) 交会距离 交会风险概率(CRP) 交会风险指数(CRI) 操作
CDM_260904-235106-490506-615421
2026-09-04T
23:51:03+0000
0.234 km
中距离
5.395223E-4 高风险 0.9
CDM_260904-090006-490506-615421
2026-09-04T
09:00:02+0000
0.697 km
远距离
5.591705E-5 中风险 0.7
CDM_260904-145305-817006-615421
2026-09-04T
14:53:48+0000
1.011 km
极远距离
2.258794E-5 中风险 0.62
CDM_260904-073906-615406-663221
2026-09-04T
07:39:25+0000
1.357 km
极远距离
5.808793E-6 低风险 0.5
CDM_260904-072606-490506-615421
2026-09-04T
07:26:14+0000
1.464 km
极远距离
4.669301E-6 低风险 0.48
CDM_260904-132005-817006-615421
2026-09-04T
13:20:00+0000
2.243 km
极远距离
1.916598E-6 低风险 0.41
CDM_260905-012406-490506-615421
2026-09-05T
01:24:50+0000
2.123 km
极远距离
1.655168E-6 低风险 0.39
CDM_260903-055905-329406-615422
2026-09-03T
05:59:13+0000
2.665 km
极远距离
1.335338E-6 低风险 0.38
CDM_260905-115805-326206-615421
2026-09-05T
11:58:41+0000
2.901 km
极远距离
1.2263E-6 低风险 0.37
CDM_260904-221706-490506-615421
2026-09-04T
22:17:15+0000
2.523 km
极远距离
1.179627E-6 低风险 0.36